User: anonymous   Login
Location: *
(53.4003°S, 165.3236°W)
Time: 17:27:08
(UTC+00:00)
Language:

Cosmos 292 Rocket - Orbit

View from above orbital plane
View from above orbital plane
View from above satellite
View from above satellite

Ground track
Ground track

The orbit data is extracted from the following two-line orbital elements,

1  4071U 69070B   24106.88420575  .00001563  00000-0  30062-3 0  9995
2  4071  74.0511  21.3982 0012788  79.5680 280.6928 14.64443050902690
Epoch (UTC): 15 April 2024 21:13:15
Eccentricity: 0.0012788
inclination: 74.0511°
perigee height: 670 km
apogee height: 688 km
right ascension of ascending node: 21.3982°
argument of perigee: 79.5680°
revolutions per day: 14.64443050
mean anomaly at epoch: 280.6928°
orbit number at epoch: 90269

The dashed part of the orbit path shows where the satellite is in the earth's shadow,  

DLR